Location: Anglesey
(53.1800°N, 4.2200°W)
Time: 03:24:41
(UTC+01:00)

N. Korean satellite - Visible Passes

Search period start: 25 September 2017 00:00
Search period end: 05 October 2017 00:00
Orbit: 461 x 516 km, 97.2° (Epoch: 24 September)

Date Brightness Start Highest point End Pass type
(mag) Time Alt. Az. Time Alt. Az. Time Alt. Az.
26 Sep 10.0 20:31:13 10° WSW 20:33:11 14° W 20:35:10 10° NW visible
27 Sep 9.4 20:06:45 10° SSW 20:09:45 23° W 20:12:42 10° NW visible
28 Sep 8.4 19:42:53 10° SSW 19:46:22 38° W 19:49:50 10° NNW visible
30 Sep 10.0 20:31:57 10° WSW 20:33:47 13° W 20:35:38 10° WNW visible
01 Oct 9.4 20:07:25 10° SW 20:10:20 22° W 20:13:14 10° NW visible
02 Oct 8.4 19:43:31 10° SSW 19:46:57 37° W 19:50:21 10° NNW visible
03 Oct 7.1 19:19:59 10° S 19:23:38 66° WSW 19:27:15 10° NNW visible
04 Oct 10.0 20:32:37 10° WSW 20:34:21 13° W 20:36:03 10° WNW visible
